Lapse_Rate
6.7 6.7 6.6 6.6 6.5 7.1 7.1 6.3 5.9 5.7 5.5 5.8 5.7 5.1 4.8 4.8 4.6 5.1 5.6 5.6 5.7 5.8 5.9 6.0 6.1 6.0 6.1 6.0 5.9 5.8 5.7 5.6 5.5 5.3 5.2 5.1 5.1 5.1 5.0 4.8 4.7 4.6 4.6 4.7 4.6 4.6 4.7 4.8 4.9
6.6 6.6 6.6 6.6 7.2 8.0 7.3 6.4 6.0 5.9 6.2 6.0 5.7 5.4 4.8 5.3 5.5 5.7 5.8 6.0 6.2 6.2 6.2 6.3 6.4 6.4 6.5 6.4 6.4 6.3 6.2 6.1 6.0 5.8 5.6 5.4 5.3 5.2 5.1 5.1 5.0 5.0 4.9 4.8 4.8 4.9 4.9 5.0 5.1
6.7 6.5 6.5 7.0 7.5 7.7 7.2 6.2 6.1 6.3 6.2 5.8 5.6 5.7 5.6 5.6 5.8 6.0 6.2 6.3 6.5 6.5 6.6 6.6 6.6 6.7 6.7 6.6 6.6 6.5 6.5 6.4 6.3 6.2 6.0 5.8 5.7 5.7 5.5 5.4 5.4 5.3 5.2 5.2 5.1 5.1 5.2 5.3 5.5
6.7 6.5 6.7 7.1 7.7 6.8 6.6 6.1 6.2 6.4 6.1 6.0 5.9 5.2 5.9 6.0 6.1 6.3 6.4 6.5 6.6 6.7 6.7 6.6 6.7 6.7 6.7 6.7 6.6 6.6 6.5 6.5 6.4 6.3 6.3 6.2 6.0 5.9 5.8 5.7 5.5 5.5 5.5 5.5 5.5 5.5 5.5 5.4 5.5
6.7 6.6 7.2 7.4 7.3 6.5 6.1 6.1 6.1 6.0 6.0 6.0 6.0 5.4 6.2 6.3 6.4 6.6 6.6 6.6 6.6 6.6 6.5 6.6 6.7 6.7 6.7 6.7 6.6 6.6 6.5 6.4 6.3 6.3 6.3 6.3 6.1 6.1 6.0 5.9 5.9 5.8 5.7 5.6 5.7 5.7 5.7 5.7 5.8
6.5 6.8 7.4 7.8 7.4 6.2 6.0 6.2 6.2 6.0 5.9 6.0 5.8 6.0 6.4 6.7 6.7 6.7 6.6 6.6 6.5 6.6 6.6 6.6 6.6 6.7 6.6 6.6 6.6 6.6 6.6 6.6 6.5 6.5 6.4 6.4 6.4 6.3 6.2 6.1 6.0 6.0 5.9 5.8 5.7 5.7 5.8 5.8 5.8
6.4 6.9 7.5 7.5 7.3 6.2 5.9 6.1 5.6 5.4 5.7 5.2 6.1 5.3 6.7 6.8 6.8 6.7 6.7 6.6 6.6 6.6 6.6 6.6 6.7 6.7 6.7 6.7 6.6 6.6 6.6 6.6 6.6 6.6 6.6 6.6 6.6 6.6 6.5 6.4 6.4 6.3 6.2 6.1 6.0 5.9 5.9 5.9 5.9
6.3 6.6 7.0 7.0 7.0 6.6 5.8 6.0 6.0 5.8 5.3 6.0 6.3 5.7 6.5 6.8 6.8 6.8 6.8 6.7 6.7 6.6 6.6 6.7 6.7 6.7 6.6 6.6 6.5 6.5 6.4 6.5 6.5 6.4 6.5 6.5 6.5 6.5 6.5 6.5 6.5 6.4 6.4 6.4 6.4 6.3 6.1 6.0 5.9
6.2 6.6 7.1 6.9 6.4 6.2 5.9 5.8 6.1 6.0 6.0 6.2 6.5 6.8 6.8 6.8 6.9 6.9 6.9 6.8 6.7 6.6 6.7 6.6 6.6 6.6 6.6 6.5 6.4 6.4 6.4 6.4 6.4 6.3 6.3 6.3 6.4 6.3 6.3 6.4 6.4 6.4 6.4 6.4 6.3 6.4 6.4 6.4 6.4
6.1 6.7 7.1 6.4 5.9 5.8 5.6 5.6 5.3 6.0 6.2 6.3 6.7 6.9 6.9 7.0 7.0 7.0 6.9 6.9 6.8 6.8 6.7 6.7 6.7 6.7 6.6 6.5 6.5 6.4 6.4 6.4 6.4 6.4 6.4 6.4 6.4 6.4 6.4 6.4 6.3 6.4 6.4 6.4 6.3 6.4 6.4 6.5 6.5
6.1 6.5 6.4 6.2 5.9 5.7 5.5 5.8 5.9 6.1 5.9 6.1 6.1 6.9 7.0 7.0 7.1 7.1 7.1 7.1 7.0 6.9 6.8 6.8 6.7 6.7 6.6 6.5 6.5 6.4 6.4 6.4 6.4 6.3 6.3 6.3 6.3 6.3 6.3 6.3 6.2 6.3 6.4 6.4 6.4 6.4 6.4 6.5 6.4
6.0 6.0 6.0 5.9 5.8 5.8 5.8 5.7 6.1 6.3 6.0 6.8 6.9 7.0 7.1 7.1 7.1 7.2 7.2 7.1 7.1 7.0 6.9 6.8 6.7 6.7 6.7 6.7 6.6 6.5 6.4 6.4 6.4 6.3 6.3 6.2 6.2 6.1 6.1 6.1 6.2 6.3 6.4 6.4 6.3 6.4 6.3 6.4 6.4
5.7 5.9 5.9 5.9 5.9 6.0 6.0 6.1 6.3 6.5 6.7 6.8 7.0 7.2 7.3 7.3 7.2 7.2 7.3 7.2 7.1 7.1 7.1 7.0 6.9 6.8 6.7 6.6 6.6 6.5 6.4 6.3 6.2 6.1 6.1 6.1 6.1 6.0 6.0 6.0 6.0 6.1 6.1 6.2 6.3 6.3 6.3 6.3 6.4
6.1 6.0 6.0 6.1 6.1 6.1 6.1 6.3 6.7 6.9 6.9 7.1 7.2 7.3 7.3 7.3 7.3 7.3 7.2 7.2 7.2 7.2 7.0 6.9 6.8 6.7 6.6 6.6 6.5 6.4 6.2 6.1 6.0 5.8 5.7 5.7 5.6 5.6 5.8 5.8 5.8 5.8 5.9 5.9 5.9 5.9 6.1 6.1 6.2
6.2 6.1 6.1 6.3 6.3 6.2 6.3 6.7 7.0 6.9 7.0 7.1 7.2 7.2 7.3 7.4 7.3 7.1 7.2 7.2 7.1 6.9 6.8 6.6 6.7 6.6 6.5 6.4 6.3 6.2 6.1 5.9 5.9 5.8 5.7 5.7 5.5 5.6 5.5 5.5 5.5 5.6 5.7 5.6 5.6 5.8 5.8 5.8 5.9
6.3 6.1 6.3 6.4 6.4 6.4 6.4 6.6 6.8 6.9 7.1 7.2 7.3 7.4 7.4 7.4 7.2 7.3 7.1 6.9 6.8 6.7 6.7 6.7 6.6 6.5 6.4 6.3 6.2 6.1 6.0 5.9 5.9 5.8 5.8 5.6 5.5 5.5 5.5 5.4 5.3 5.3 5.3 5.4 5.5 5.4 5.5 5.6 5.8
6.2 7.2 6.7 6.3 6.7 6.6 6.6 6.5 6.6 6.9 7.0 7.1 7.2 7.3 7.3 7.3 7.2 7.2 7.1 7.0 6.9 6.8 6.7 6.6 6.6 6.5 6.4 6.3 6.2 6.1 6.0 6.0 5.9 5.7 5.6 5.4 5.2 5.2 5.1 5.1 5.0 5.1 5.1 5.1 5.2 5.3 5.3 5.5 5.7
7.2 7.0 6.7 6.5 6.4 6.7 6.6 6.8 6.7 7.0 7.0 7.1 7.2 7.2 7.2 7.1 7.1 7.1 7.0 6.9 6.8 6.7 6.7 6.6 6.6 6.6 6.5 6.4 6.2 6.1 6.0 5.9 5.7 5.5 5.4 5.3 5.2 5.1 5.0 4.9 5.0 5.0 5.0 5.0 5.0 4.9 5.1 5.1 5.3
6.4 6.2 6.4 6.4 6.7 6.7 6.8 7.0 6.9 7.0 7.2 7.2 7.3 7.1 7.1 7.0 7.1 7.0 6.9 6.9 6.8 6.6 6.6 6.6 6.6 6.6 6.5 6.4 6.3 6.1 6.0 5.7 5.6 5.5 5.4 5.3 5.3 5.2 5.2 5.1 5.1 5.2 5.0 5.1 4.9 4.9 4.9 5.0 5.2
6.2 6.0 6.5 6.1 6.5 6.6 6.6 7.2 7.1 7.1 7.2 7.3 7.2 7.2 7.1 7.1 7.1 6.9 6.9 6.8 6.7 6.6 6.5 6.5 6.5 6.5 6.4 6.4 6.3 6.1 5.9 5.7 5.7 5.6 5.6 5.6 5.6 5.5 5.4 5.3 5.2 5.1 5.1 4.9 4.9 5.0 5.0 5.1 5.0
5.9 5.9 6.0 5.8 6.2 6.5 6.7 7.3 7.2 7.2 7.1 7.1 7.1 7.1 7.1 7.0 6.9 6.9 6.8 6.8 6.6 6.5 6.4 6.4 6.4 6.4 6.4 6.3 6.2 6.0 5.9 5.7 5.7 5.6 5.7 5.7 5.7 5.7 5.5 5.4 5.4 5.2 5.1 5.0 4.9 4.9 4.9 5.0 5.2
5.9 6.0 6.1 6.0 5.8 6.8 6.3 7.6 7.2 6.8 7.0 7.0 6.9 6.9 6.9 6.9 6.8 6.8 6.8 6.7 6.6 6.6 6.5 6.4 6.4 6.4 6.4 6.2 6.0 5.8 5.6 5.5 5.5 5.5 5.6 5.6 5.7 5.8 5.7 5.6 5.5 5.3 5.2 5.0 4.9 5.0 5.1 5.2 5.1
5.7 6.0 6.0 5.9 5.5 5.5 6.0 5.9 7.5 6.6 6.8 6.9 6.8 6.9 6.9 6.8 6.8 6.8 6.8 6.7 6.6 6.6 6.5 6.4 6.4 6.5 6.3 6.1 5.8 5.6 5.6 5.5 5.5 5.6 5.7 5.7 5.7 5.6 5.6 5.8 5.7 5.4 5.3 5.2 5.2 5.2 5.1 5.2 5.3
5.8 5.8 5.8 5.7 5.2 5.9 6.7 6.3 7.7 6.9 7.2 6.8 6.8 6.8 6.8 6.8 6.8 6.8 6.7 6.6 6.6 6.5 6.5 6.5 6.4 6.4 6.2 6.0 5.9 5.8 5.7 5.7 5.7 5.8 5.8 5.7 5.6 5.7 5.7 5.6 5.7 5.6 5.5 5.4 5.3 5.3 5.2 5.4 5.5
5.5 5.3 6.4 6.4 6.0 7.1 6.1 5.7 7.2 6.8 7.2 6.9 6.9 6.8 6.8 6.8 6.8 6.7 6.7 6.6 6.6 6.6 6.6 6.5 6.4 6.3 6.2 6.1 5.9 5.9 5.8 5.8 5.7 5.6 5.6 5.6 5.6 5.6 5.6 5.7 5.7 5.6 5.5 5.3 5.3 5.5 5.5 5.5 5.6
5.6 5.3 6.5 6.6 7.3 7.4 5.8 6.0 6.9 6.8 7.2 7.1 7.0 6.9 6.8 6.8 6.8 6.8 6.7 6.7 6.7 6.7 6.6 6.5 6.4 6.3 6.2 6.1 6.0 6.0 5.8 5.9 6.0 5.8 5.8 5.8 5.8 5.6 5.5 5.6 5.6 5.5 5.5 5.5 5.3 5.4 5.5 5.6 5.7
4.6 5.1 5.3 5.3 5.7 6.0 7.0 6.7 7.1 7.3 7.4 7.3 7.1 7.1 6.9 6.9 6.9 6.8 6.8 6.7 6.6 6.6 6.6 6.5 6.4 6.2 6.2 6.1 6.0 6.0 5.9 5.8 5.9 5.8 6.0 6.0 5.9 5.9 5.8 5.6 5.5 5.5 5.4 5.3 5.5 5.5 5.5 5.7 5.7
5.0 5.0 5.2 5.1 6.0 6.6 7.7 7.3 7.8 7.7 7.7 7.5 7.4 7.2 7.0 6.9 6.9 6.9 6.9 6.7 6.6 6.5 6.5 6.5 6.4 6.3 6.2 6.1 6.1 6.0 6.0 6.0 6.0 5.9 6.0 6.1 6.2 6.1 6.0 5.9 5.8 5.6 5.4 5.2 5.3 5.4 5.4 5.5 5.6
4.8 4.5 5.0 5.3 5.7 6.9 7.6 8.1 7.5 7.6 7.8 7.9 7.6 7.2 7.0 7.0 6.9 6.8 6.8 6.6 6.5 6.5 6.5 6.5 6.4 6.3 6.2 6.2 6.1 6.1 6.0 6.0 6.0 6.0 6.1 6.2 6.2 6.2 6.2 6.1 6.1 5.9 5.8 5.6 5.5 5.2 5.2 5.4 5.5
4.8 4.6 4.9 5.6 6.1 5.5 5.4 6.7 7.6 7.5 7.8 7.6 7.4 7.2 7.0 7.0 6.9 6.8 6.7 6.7 6.6 6.5 6.4 6.4 6.4 6.3 6.2 6.2 6.2 6.1 6.0 5.9 5.9 6.0 6.2 6.3 6.3 6.3 6.3 6.1 6.1 5.9 5.7 5.5 5.3 5.2 5.3 5.4 5.5
Wind_Speed
16 10 4 4 6 5 3 5 1 4 2 5 4 7 9 10 9 4 7 6 13 11 14 12 10 10 7 7 10 8 8 10 12 12 13 12 13 13 13 14 14 16 16 15 15 16 17 16 16
12 9 4 4 6 6 7 3 7 7 7 4 2 2 0 7 10 10 9 9 12 11 11 13 10 10 7 8 8 7 9 8 9 10 11 11 11 11 12 13 13 14 14 14 15 15 15 15 15
11 7 7 4 4 6 5 5 7 7 5 1 1 2 3 7 5 10 11 12 12 10 11 14 10 9 7 8 8 7 8 7 8 10 9 10 10 10 12 12 13 12 13 14 14 14 14 15 15
5 4 5 7 6 4 4 7 7 6 3 0 2 5 5 6 5 6 12 12 11 11 11 13 10 10 7 7 7 7 6 5 6 7 8 9 9 10 11 12 12 12 13 13 13 14 14 14 15
5 5 8 5 1 1 4 7 4 3 3 3 1 5 4 6 6 10 12 11 10 10 11 13 10 8 8 7 7 7 6 5 6 5 7 7 7 7 9 9 10 11 11 12 12 12 12 12 14
6 5 8 8 5 3 5 5 3 1 3 5 3 2 6 10 9 9 11 10 11 10 9 13 10 8 7 7 6 6 5 4 3 5 5 6 7 6 6 7 8 9 9 9 10 11 10 11 13
10 6 10 6 1 6 4 5 3 1 2 4 3 1 5 10 9 9 11 10 10 10 8 9 13 10 6 7 6 5 4 4 3 4 3 4 5 5 4 6 8 8 8 8 9 8 9 9 10
5 4 6 6 5 4 5 5 2 3 7 3 2 2 5 10 10 11 11 10 8 9 8 8 7 9 10 11 7 5 3 2 3 3 2 1 2 2 1 4 7 6 7 7 6 6 7 7 7
2 6 7 5 4 5 6 6 3 2 3 4 5 3 7 14 12 12 11 10 9 8 8 8 8 7 6 5 10 6 5 3 3 4 5 6 5 1 2 5 3 4 4 4 4 4 3 3 0
6 8 1 6 4 1 6 6 5 5 7 7 7 8 8 14 13 13 12 12 11 11 9 8 8 8 7 6 7 6 5 6 5 4 3 4 2 1 4 1 2 2 2 2 2 3 6 9 4
3 5 6 3 4 2 2 5 4 7 7 7 8 13 12 13 13 13 13 13 13 12 9 9 10 9 9 7 7 6 6 5 5 5 4 4 4 5 5 3 5 3 5 4 4 5 5 5 5
5 1 3 2 2 2 4 2 6 10 8 3 2 1 14 15 14 14 13 13 13 13 12 11 12 11 10 9 8 7 7 6 6 5 5 5 5 4 4 4 3 4 3 4 4 4 5 6 6
4 3 1 3 2 3 2 7 8 9 8 7 5 6 11 12 13 13 13 12 12 13 13 12 13 12 11 11 8 7 7 7 7 6 6 6 5 5 5 5 5 5 5 5 5 5 6 7 7
2 2 3 4 4 3 5 7 2 3 5 10 11 11 11 13 13 12 12 13 13 12 13 13 13 14 12 11 10 8 8 8 7 7 7 7 7 7 6 6 6 6 6 6 6 6 7 7 9
2 5 5 6 5 3 4 10 11 8 7 8 11 12 13 13 13 14 13 13 13 12 12 13 13 15 13 12 11 10 10 8 9 9 9 10 9 8 8 7 7 7 7 7 8 9 8 8 9
5 6 8 7 5 4 4 4 9 8 9 9 10 11 13 14 13 13 12 13 12 12 13 13 10 12 14 13 11 11 11 11 11 11 11 11 11 11 10 9 9 8 8 8 8 7 6 6 7
7 2 3 6 5 1 7 7 8 8 9 9 9 10 11 13 14 14 14 13 13 13 13 13 13 13 13 14 13 12 12 12 12 12 12 12 12 13 12 11 10 10 9 9 8 6 6 7 7
2 4 2 4 5 7 10 14 12 12 13 13 13 12 12 13 15 13 14 13 13 13 12 13 11 13 12 11 12 11 11 12 13 13 13 13 13 14 13 13 13 12 8 7 7 8 6 7 7
5 5 6 3 3 4 9 11 11 10 12 12 12 12 13 14 13 13 14 14 14 14 13 14 13 13 10 9 9 8 8 8 8 13 16 16 15 15 15 13 13 13 8 9 8 7 8 6 7
5 7 6 3 0 4 10 14 13 11 11 10 9 11 13 13 13 12 13 15 15 15 15 14 14 14 11 8 8 8 7 7 8 11 14 17 18 18 17 15 11 12 7 9 9 8 6 6 6
6 7 7 6 9 12 10 12 12 11 9 8 8 8 10 13 14 14 15 15 15 16 16 15 15 15 14 14 8 6 6 5 6 7 7 13 18 18 18 17 15 12 10 7 8 8 10 7 6
9 4 3 5 7 3 1 4 11 13 12 11 11 11 10 11 11 13 15 15 16 15 12 15 14 15 13 14 11 13 9 8 7 8 7 8 16 17 18 18 17 14 11 10 9 8 9 8 8
4 1 3 5 8 9 9 5 3 13 11 12 12 11 9 10 12 14 14 14 14 13 13 12 13 13 12 12 12 9 11 8 7 6 8 8 9 14 16 18 17 13 11 9 11 10 10 8 8
3 4 6 5 4 6 11 8 8 9 15 13 12 11 10 10 11 11 12 12 12 11 10 10 13 13 12 12 12 13 12 10 7 7 7 7 7 7 14 16 15 15 12 12 10 11 12 10 10
6 6 3 4 5 3 4 5 9 7 7 13 14 13 12 11 11 12 12 12 12 11 11 10 12 12 13 13 12 12 12 11 11 10 8 8 7 7 8 9 10 9 13 13 12 11 12 11 11
13 8 6 5 3 2 4 7 2 5 9 8 12 13 12 11 10 11 12 11 12 12 12 12 12 12 12 12 12 10 11 7 8 9 8 7 7 7 7 7 10 11 13 12 12 9 10 11 10
7 7 3 5 3 4 6 7 6 8 11 12 13 12 12 12 11 11 11 11 11 12 13 13 12 11 12 11 9 10 10 10 9 10 8 7 8 7 8 8 9 9 10 11 11 9 11 11 11
6 4 4 5 4 5 7 7 5 14 18 16 16 15 13 12 12 11 11 11 10 10 11 11 11 11 10 9 9 8 10 10 9 8 9 9 9 8 8 8 9 9 10 10 11 10 11 12 10
7 6 7 4 4 3 3 3 4 14 19 20 18 16 15 14 13 12 11 11 11 10 10 10 10 10 9 9 9 9 8 8 7 7 7 8 8 8 9 9 9 10 10 11 10 11 11 12 12
10 13 16 5 5 4 3 5 1 3 13 16 17 16 15 14 13 12 12 12 12 12 11 11 11 10 9 9 9 8 6 5 6 7 8 7 8 8 9 9 9 10 10 10 11 11 11 12 13
Wind_Direction
288 288 312 256 258 248 78 76 51 57 114 48 36 357 21 32 5 33 132 128 127 129 123 131 115 100 90 68 72 62 75 46 51 50 45 47 46 45 45 47 43 43 45 46 43 52 43 38 35
307 308 250 274 266 277 91 93 65 51 76 59 61 308 95 74 61 110 145 144 141 130 128 125 112 104 94 75 81 66 68 48 57 57 55 49 55 47 49 47 47 41 38 51 47 45 48 41 38
281 283 270 283 278 349 30 56 94 95 92 34 136 357 18 70 75 133 102 150 135 133 119 105 113 108 99 90 82 77 76 53 66 62 57 52 49 48 45 41 38 50 33 39 46 41 46 38 35
306 217 234 254 303 78 16 95 102 124 122 66 350 115 116 39 128 105 137 144 141 134 128 121 130 120 120 104 100 91 84 66 64 50 67 58 45 49 43 39 36 35 36 37 41 42 39 37 32
245 262 263 246 201 76 83 99 129 116 104 128 269 92 80 119 112 123 143 152 141 143 128 134 135 127 127 117 113 102 97 92 67 82 69 62 50 49 44 39 35 36 42 37 36 40 40 37 32
247 269 251 246 163 118 122 136 131 57 108 101 208 133 90 122 150 141 151 154 151 141 145 132 138 144 133 127 122 116 110 107 92 93 90 67 59 48 49 35 26 34 37 35 32 30 40 36 34
253 233 261 301 176 187 143 150 206 107 120 107 23 234 93 155 150 156 160 156 155 149 156 149 155 154 150 137 136 131 120 114 125 116 101 83 72 48 52 32 28 27 25 28 27 30 30 38 37
275 275 246 240 192 197 127 161 36 247 85 96 272 197 145 145 152 161 163 162 161 155 167 165 163 170 171 157 151 147 134 133 148 140 109 131 226 161 182 292 34 29 21 19 28 28 24 28 34
257 248 228 193 218 118 145 197 151 71 187 201 173 324 99 135 155 165 170 174 172 175 182 179 179 179 176 176 144 170 180 181 186 181 190 243 250 236 268 73 22 10 17 15 15 13 354 299 248
239 239 253 45 46 174 168 229 149 217 197 201 189 125 142 152 170 178 185 187 189 187 188 188 193 190 188 197 180 206 173 215 206 221 233 282 297 340 314 267 202 245 268 246 242 260 262 257 309
183 298 101 96 50 350 191 226 215 231 243 237 209 183 173 178 186 193 195 197 194 191 191 193 192 198 194 208 202 207 212 217 228 234 245 271 279 249 230 249 210 229 198 248 232 229 256 310 313
219 68 13 119 96 226 240 286 240 234 253 83 214 174 171 191 195 203 200 199 192 191 190 190 195 197 204 209 208 215 214 214 229 226 233 246 245 257 267 260 273 258 270 285 274 294 294 283 267
246 150 170 130 191 248 288 252 262 260 232 195 204 189 188 200 203 203 205 199 197 191 190 195 194 205 205 209 215 222 224 218 235 225 231 243 248 258 262 253 250 255 262 264 274 278 287 280 285
92 193 164 189 200 226 258 256 273 204 211 220 196 211 209 208 204 199 203 201 200 200 189 195 197 202 207 214 214 228 229 234 241 241 242 235 245 256 252 257 255 262 257 268 268 280 284 284 279
185 216 196 211 213 244 280 251 230 231 187 202 209 218 214 207 205 209 201 208 202 200 198 198 196 198 210 215 221 220 239 238 242 240 241 242 243 253 257 260 261 261 269 264 267 265 267 270 268
229 234 215 144 195 151 234 97 189 170 195 220 215 208 205 210 210 209 203 205 205 201 197 196 198 205 202 215 216 228 228 232 239 240 239 239 237 242 250 258 260 256 258 262 269 271 274 273 271
204 283 220 163 204 246 227 316 146 192 212 229 224 215 207 210 210 212 206 203 202 205 197 198 196 205 208 210 220 223 230 233 236 242 241 239 238 238 240 249 252 253 248 250 255 260 260 272 277
22 264 184 280 139 231 254 261 262 209 222 240 242 233 213 209 210 204 203 202 202 202 207 198 202 205 205 209 218 225 233 235 239 241 240 240 237 236 239 245 246 250 245 247 248 253 261 267 279
322 297 283 289 94 287 255 265 262 246 226 238 241 232 216 211 204 193 192 196 200 204 204 206 203 205 204 207 212 221 228 233 235 234 240 237 237 233 232 238 244 238 238 244 245 250 253 255 258
289 292 289 270 15 272 286 279 266 241 223 230 231 218 213 204 191 184 187 193 199 202 203 206 207 206 204 212 214 222 229 233 238 227 235 235 235 233 231 230 235 238 238 236 244 248 253 257 253
250 288 321 308 316 248 282 265 222 206 204 207 222 227 206 203 200 190 193 197 197 205 201 205 207 206 207 208 213 218 243 255 259 244 244 236 233 231 229 233 232 234 233 236 235 233 234 248 250
285 52 299 301 308 306 301 313 190 175 202 204 206 197 203 204 212 203 192 198 198 204 202 201 203 206 208 205 213 216 223 229 228 231 231 227 234 235 232 233 234 238 233 231 233 232 230 228 247
23 13 292 296 288 302 212 249 173 178 203 200 198 181 187 188 195 203 202 196 201 195 196 200 201 203 204 205 209 220 227 241 243 245 242 236 239 235 236 234 237 238 237 238 235 231 231 227 235
105 241 240 265 268 250 215 226 189 186 210 191 180 172 174 181 183 190 191 193 195 184 188 192 200 204 204 204 209 221 231 235 245 240 244 247 241 236 234 238 242 242 240 236 235 236 235 231 230
217 245 218 213 202 260 141 212 281 151 190 183 177 176 175 177 179 180 178 181 185 182 189 195 204 207 205 208 214 218 231 241 250 254 254 255 250 239 236 228 233 241 243 247 244 238 235 233 235
204 248 271 274 226 117 170 227 216 196 164 172 173 170 173 181 182 181 183 184 188 188 191 195 200 208 206 208 216 221 228 233 241 245 251 258 258 259 256 239 228 240 246 241 239 244 243 242 239
156 218 12 288 223 268 206 230 213 182 181 176 175 174 188 188 183 182 180 187 188 191 193 196 199 206 207 209 209 218 226 233 244 252 252 253 255 261 261 257 254 244 241 244 238 239 241 237 238
263 356 196 215 248 240 205 248 238 187 194 189 189 192 193 188 184 184 184 184 188 190 191 193 195 199 202 202 210 219 226 231 238 246 253 255 255 249 251 251 248 246 248 242 237 239 240 241 242
191 223 224 298 263 273 292 205 29 198 198 192 194 193 192 189 190 188 189 184 185 184 184 187 189 196 194 196 203 210 218 225 236 245 253 256 259 259 254 249 244 245 243 242 241 240 243 244 244
275 227 219 243 198 248 322 283 31 303 195 195 195 192 195 191 193 191 188 183 184 186 186 187 185 187 189 189 193 199 203 212 233 248 256 258 262 260 255 255 255 252 247 246 246 248 246 246 247